logo tempoitalia

Diretta Meteo Hot Springs-Ingalls, Stati Uniti (USA)lunedì 31 agosto ore 02:35

Mappa
Sereno 21 °C Sereno 24 Ore: T.min 17 T.max 25
Ponente Nord Km/h 0 Punto di rugiada: 17 °C Umidità: 77% Visibilità: 10 Km
Il sole sorge alle: 06:48 Il sole tramonta alle: 19:50
31 Agosto 2026 02:35 tempo osservato: Sereno Sereno 21 77 1025 vento: Nord N 0
31 Agosto 2026 02:15 tempo osservato: Sereno Sereno 19 82 1025 vento: Nord N 0
31 Agosto 2026 01:55 tempo osservato: Sereno Sereno 21 77 1025 vento: Nord N 0
31 Agosto 2026 01:35 tempo osservato: Sereno Sereno 20 82 1025 vento: Nord N 0
31 Agosto 2026 01:15 tempo osservato: Sereno Sereno 20 88 1025 vento: Nord N 5.5
31 Agosto 2026 00:55 tempo osservato: Sereno Sereno 20 82 1025 vento: Nord O 7.4
31 Agosto 2026 00:35 tempo osservato: Sereno Sereno 20 82 1025 vento: Nord N 0
31 Agosto 2026 00:15 tempo osservato: Sereno Sereno 20 88 1026 vento: Nord N 0
30 Agosto 2026 23:55 tempo osservato: Sereno Sereno 21 82 1026 vento: Nord N 0
30 Agosto 2026 23:35 tempo osservato: Sereno Sereno 20 88 1026 vento: Nord N 0
30 Agosto 2026 23:15 tempo osservato: Sereno Sereno 20 88 1026 vento: Nord N 0
30 Agosto 2026 22:55 tempo osservato: Sereno Sereno 21 82 1026 vento: Nord N 0
30 Agosto 2026 22:35 tempo osservato: Sereno Sereno 20 82 1026 vento: Nord N 0
30 Agosto 2026 22:15 tempo osservato: Sereno Sereno 21 82 1026 vento: Nord N 0
30 Agosto 2026 21:55 tempo osservato: Sereno Sereno 21 77 1026 vento: Nord N 5.5
30 Agosto 2026 21:35 tempo osservato: Sereno Sereno 21 82 1026 vento: Nord N 0
30 Agosto 2026 21:15 tempo osservato: Sereno Sereno 21 82 1026 vento: Nord N 5.5
30 Agosto 2026 20:55 tempo osservato: Sereno Sereno 21 82 1026 vento: Nord SO 7.4
30 Agosto 2026 20:35 tempo osservato: Sereno Sereno 22 73 1025 vento: Nord S 9.3
30 Agosto 2026 20:15 tempo osservato: Sereno Sereno 21 77 1025 vento: Nord S/SO 7.4
30 Agosto 2026 19:55 tempo osservato: Sereno Sereno 22 73 1025 vento: Nord S/SO 7.4
30 Agosto 2026 19:35 tempo osservato: Sereno Sereno 21 77 1025 vento: Nord SO 9.3
30 Agosto 2026 19:15 tempo osservato: Sereno Sereno 22 73 1025 vento: Nord SO 9.3
30 Agosto 2026 18:55 tempo osservato: Sereno Sereno 23 73 1025 vento: Nord O/SO 13
30 Agosto 2026 18:35 tempo osservato: Sereno Sereno 23 68 1025 vento: Nord O 11.1
30 Agosto 2026 18:15 tempo osservato: Sereno Sereno 24 69 1025 vento: Nord O/SO 13
30 Agosto 2026 17:55 tempo osservato: Sereno Sereno 24 73 1025 vento: Nord O/SO 14.8
30 Agosto 2026 17:35 tempo osservato: Sereno Sereno 24 69 1025 vento: Nord O/SO 11.1
30 Agosto 2026 17:15 tempo osservato: Sereno Sereno 24 69 1025 vento: Nord SO 13
30 Agosto 2026 16:55 tempo osservato: Sereno Sereno 24 69 1025 vento: Nord O/SO 11.1
30 Agosto 2026 16:35 tempo osservato: Sereno Sereno 25 65 1025 vento: Nord O/SO 11.1
30 Agosto 2026 16:15 tempo osservato: Sereno Sereno 25 65 1025 vento: Nord O 14.8
30 Agosto 2026 15:55 tempo osservato: Sereno Sereno 24 69 1025 vento: Nord O 13
30 Agosto 2026 15:35 tempo osservato: Sereno Sereno 25 65 1025 vento: Nord O/SO 11.1
30 Agosto 2026 15:15 tempo osservato: Sereno Sereno 25 65 1026 vento: Nord O/SO 14.8
30 Agosto 2026 14:55 tempo osservato: Sereno Sereno 25 65 1026 vento: Nord O/SO 11.1
30 Agosto 2026 14:35 tempo osservato: Sereno Sereno 25 65 1026 vento: Nord O/SO 11.1
30 Agosto 2026 14:15 tempo osservato: Sereno Sereno 24 64 1026 vento: Nord O/SO 9.3
30 Agosto 2026 13:55 tempo osservato: Sereno Sereno 24 69 1027 vento: Nord SO 14.8
30 Agosto 2026 13:35 tempo osservato: Sereno Sereno 24 69 1027 vento: Nord O/SO 14.8
30 Agosto 2026 13:15 tempo osservato: Sereno Sereno 24 69 1027 vento: Nord O/SO 13
30 Agosto 2026 12:55 tempo osservato: Sereno Sereno 23 73 1027 vento: Nord SO 7.4
30 Agosto 2026 12:35 tempo osservato: Sereno Sereno 23 73 1028 vento: Nord S/SO 9.3
30 Agosto 2026 12:15 tempo osservato: Sereno Sereno 22 73 1028 vento: Nord SO 13
30 Agosto 2026 11:55 tempo osservato: Sereno Sereno 23 73 1028 vento: Nord O 11.1
30 Agosto 2026 11:35 tempo osservato: Sereno Sereno 22 78 1028 vento: Nord O/SO 11.1
30 Agosto 2026 11:15 tempo osservato: Sereno Sereno 22 78 1027 vento: Nord O 9.3
30 Agosto 2026 10:55 tempo osservato: Sereno Sereno 22 78 1027 vento: Nord O/SO 11.1
30 Agosto 2026 10:35 tempo osservato: Sereno Sereno 22 78 1027 vento: Nord SO 9.3
30 Agosto 2026 10:15 tempo osservato: Sereno Sereno 21 88 1027 vento: Nord N 5.5
30 Agosto 2026 09:55 tempo osservato: Sereno Sereno 22 78 1027 vento: Nord S/SO 11.1
30 Agosto 2026 09:35 tempo osservato: Sereno Sereno 21 82 1027 vento: Nord S/SO 9.3
30 Agosto 2026 09:15 tempo osservato: Sereno Sereno 20 88 1027 vento: Nord N 5.5
30 Agosto 2026 08:55 tempo osservato: Sereno Sereno 20 82 1027 vento: Nord S/SO 7.4
30 Agosto 2026 08:35 tempo osservato: Sereno Sereno 20 77 1027 vento: Nord S 9.3
30 Agosto 2026 08:15 tempo osservato: Sereno Sereno 20 77 1027 vento: Nord N 5.5
30 Agosto 2026 07:55 tempo osservato: Sereno Sereno 19 88 1027 vento: Nord SO 11.1
30 Agosto 2026 07:35 tempo osservato: Sereno Sereno 18 93 1027 vento: Nord N 5.5
30 Agosto 2026 07:15 tempo osservato: Sereno Sereno 18 88 1027 vento: Nord S/SO 7.4
30 Agosto 2026 06:55 tempo osservato: Foschia Foschia 17 100 1027 vento: Nord N 5.5
30 Agosto 2026 06:35 tempo osservato: Foschia Foschia 17 100 1026 vento: Nord O/SO 13
30 Agosto 2026 06:15 tempo osservato: Foschia Foschia 17 100 1026 vento: Nord O/SO 13
30 Agosto 2026 05:55 tempo osservato: Sereno Sereno 17 93 1026 vento: Nord N 0
30 Agosto 2026 05:35 tempo osservato: Sereno Sereno 17 93 1026 vento: Nord N 5.5
30 Agosto 2026 05:15 tempo osservato: Foschia Foschia 17 100 1026 vento: Nord SO 9.3
30 Agosto 2026 04:55 tempo osservato: Foschia Foschia 18 93 1026 vento: Nord SO 7.4
30 Agosto 2026 04:35 tempo osservato: Foschia Foschia 18 93 1026 vento: Nord S/SO 9.3
30 Agosto 2026 04:15 tempo osservato: Foschia Foschia 18 100 1027 vento: Nord S 11.1
30 Agosto 2026 03:55 tempo osservato: Foschia Foschia 18 100 1027 vento: Nord S 14.8
30 Agosto 2026 03:35 tempo osservato: Foschia Foschia 18 100 1027 vento: Nord S 14.8
30 Agosto 2026 03:15 tempo osservato: Foschia Foschia 18 100 1027 vento: Nord S 11.1
30 Agosto 2026 02:55 tempo osservato: Foschia Foschia 18 100 1027 vento: Nord S 11.1
30 Agosto 2026 02:35 tempo osservato: Nebbia Nebbia 18 100 1027 vento: Nord S 7.4